[Date Prev][Date Next][Thread Prev][Thread Next] - [Date Index][Thread Index][Author Index]
2 Line ISS Keps 5-12
- Subject: [sarex] 2 Line ISS Keps 5-12
- From: "Dave Larsen PhD" <doc@xxxxxxxxxxx>
- Date: Wed, 12 May 2004 05:00:03 -0700
ISS
1 25544U 98067A 04133.10203866 .00009135 00000-0 81145-4 0 7604
2 25544 51.6260 149.6396 0010983 124.7712 346.3301 15.69334836312650
----
Via the sarex mailing list at AMSAT.ORG courtesy of AMSAT-NA.
To unsubscribe, send "unsubscribe sarex" to Majordomo@amsat.org
AMSAT Home